Change the Weather History Date:

Monday, October 31, 2011

  Actual Average Record
Temperature  
Mean Temperature 48 °F -  
Max Temperature 64 °F 46 °F 73 °F (1999)
Min Temperature 32 °F 25 °F 6 °F (2002)
Degree Days  
Heating Degree Days 17    
Moisture  
Dew Point 30 °F    
Average Humidity 55    
Maximum Humidity 75    
Minimum Humidity 37    
Precipitation  
Precipitation 0.02 in - - ()
Sea Level Pressure  
Sea Level Pressure 29.79 in    
Wind  
Wind Speed 10 mph (SW)    
Max Wind Speed 36 mph    
Max Gust Speed 43 mph    
Visibility 10 miles    
Events      
Averages and records for this station are not official NWS values.
T = Trace of Precipitation, MM = Missing Value Source: NWS Daily Summary

Daily Weather History Graph

Daily Weather History Graph

Search for Another Location

Airport or City:

Trip Planner

Search our weather history database for the weather conditions in past years. The results will help you decide how hot, cold, wet, or windy it might be!

Date:

Astronomy

Oct. 31, 2011 Rise Set
Actual Time 7:40 AM MDT 5:44 PM MDT
Civil Twilight 7:08 AM MDT 6:16 PM MDT
Nautical Twilight 6:32 AM MDT 6:52 PM MDT
Astronomical Twilight 5:57 AM MDT 7:27 PM MDT
Moon 12:57 PM MDT (10/31) 10:15 PM MDT (10/31)
Length of Visible Light 11h 07m
Length of Day
10h 04m
Waxing Crescent, 30% of the Moon is Illuminated
Oct 31
Waxing Crescent
Nov 2
First Quarter
Nov 10
Full
Nov 18
Last Quarter
Nov 24
New

Hourly Weather History & Observations

Time (MDT) Temp. Windchill Dew Point Humidity Pressure Visibility Wind Dir Wind Speed Gust Speed Precip Events Conditions
12:35 AM 37.4 °F 29.8 °F 21.2 °F 52% 29.83 in 10.0 mi SSW 11.5 mph - N/A   Clear
12:55 AM 37.4 °F 30.3 °F 23.0 °F 56% 29.82 in 10.0 mi SSW 10.4 mph - N/A   Clear
1:15 AM 37.4 °F 29.3 °F 23.0 °F 56% 29.82 in 10.0 mi South 12.7 mph - N/A   Clear
2:15 AM 35.6 °F 28.6 °F 21.2 °F 56% 29.81 in 10.0 mi South 9.2 mph - N/A   Clear
2:35 AM 33.8 °F 26.4 °F 21.2 °F 60% 29.80 in 10.0 mi South 9.2 mph - N/A   Clear
2:55 AM 33.8 °F 28.6 °F 21.2 °F 60% 29.79 in 10.0 mi South 5.8 mph - N/A   Clear
3:15 AM 33.8 °F 28.6 °F 23.0 °F 65% 29.79 in 10.0 mi SSE 5.8 mph - N/A   Partly Cloudy
3:35 AM 33.8 °F 28.6 °F 24.8 °F 70% 29.78 in 10.0 mi South 5.8 mph - N/A   Mostly Cloudy
3:55 AM 33.8 °F 28.6 °F 24.8 °F 70% 29.77 in 10.0 mi SSE 5.8 mph - N/A   Partly Cloudy
4:15 AM 33.8 °F 29.6 °F 21.2 °F 60% 29.77 in 10.0 mi South 4.6 mph - N/A   Clear
4:35 AM 33.8 °F 30.8 °F 23.0 °F 65% 29.76 in 10.0 mi SSE 3.5 mph - N/A   Clear
4:55 AM 32.0 °F 27.5 °F 23.0 °F 69% 29.77 in 10.0 mi SSE 4.6 mph - N/A   Clear
5:15 AM 32.0 °F 26.4 °F 24.8 °F 75% 29.77 in 10.0 mi SSE 5.8 mph - N/A   Clear
5:36 AM 33.8 °F 26.4 °F 24.8 °F 70% 29.76 in 10.0 mi South 9.2 mph - N/A   Clear
5:55 AM 33.8 °F 26.4 °F 26.6 °F 75% 29.76 in 10.0 mi SSE 9.2 mph - N/A   Clear
6:15 AM 33.8 °F 28.6 °F 24.8 °F 70% 29.76 in 10.0 mi South 5.8 mph - N/A   Mostly Cloudy
6:35 AM 33.8 °F 28.6 °F 24.8 °F 70% 29.76 in 10.0 mi SSW 5.8 mph - N/A   Scattered Clouds
6:55 AM 35.6 °F 30.7 °F 24.8 °F 65% 29.76 in 10.0 mi South 5.8 mph - N/A   Overcast
7:15 AM 35.6 °F 31.7 °F 26.6 °F 70% 29.75 in 10.0 mi SSW 4.6 mph - N/A   Scattered Clouds
7:35 AM 37.4 °F 31.4 °F 26.6 °F 65% 29.76 in 10.0 mi South 8.1 mph - N/A   Mostly Cloudy
7:55 AM 37.4 °F 31.4 °F 28.4 °F 70% 29.75 in 10.0 mi South 8.1 mph - N/A   Overcast
8:15 AM 37.4 °F 32.8 °F 26.6 °F 65% 29.75 in 10.0 mi South 5.8 mph - N/A   Scattered Clouds
8:35 AM 37.4 °F 31.4 °F 28.4 °F 70% 29.75 in 10.0 mi SSW 8.1 mph - N/A   Scattered Clouds
9:15 AM 44.6 °F 41.4 °F 30.2 °F 57% 29.75 in 10.0 mi South 5.8 mph - N/A   Partly Cloudy
9:35 AM 48.2 °F - 30.2 °F 50% 29.75 in 10.0 mi South 8.1 mph - N/A   Mostly Cloudy
9:55 AM 48.2 °F - 30.2 °F 50% 29.75 in 10.0 mi South 5.8 mph - N/A   Overcast
10:15 AM 51.8 °F - 32.0 °F 47% 29.75 in 10.0 mi SSW 6.9 mph - N/A   Overcast
10:35 AM 53.6 °F - 32.0 °F 44% 29.75 in 10.0 mi SSW 4.6 mph - N/A   Overcast
10:55 AM 55.4 °F - 32.0 °F 41% 29.75 in 10.0 mi SW 6.9 mph - N/A   Overcast
11:15 AM 57.2 °F - 32.0 °F 38% 29.75 in 10.0 mi SW 10.4 mph - N/A   Scattered Clouds
11:35 AM 57.2 °F - 32.0 °F 38% 29.75 in 10.0 mi WSW 6.9 mph - N/A   Scattered Clouds
11:55 AM 59.0 °F - 33.8 °F 39% 29.74 in 10.0 mi SW 10.4 mph - N/A   Partly Cloudy
12:15 PM 60.8 °F - 35.6 °F 39% 29.74 in 10.0 mi SW 10.4 mph - N/A   Scattered Clouds
12:55 PM 62.6 °F - 35.6 °F 37% 29.73 in 10.0 mi Calm Calm - N/A   Partly Cloudy
1:35 PM 64.4 °F - 37.4 °F 37% 29.72 in 10.0 mi WNW 6.9 mph - N/A   Mostly Cloudy
1:55 PM 62.6 °F - 37.4 °F 39% 29.72 in 10.0 mi NNW 11.5 mph - N/A   Overcast
2:15 PM 62.6 °F - 37.4 °F 39% 29.72 in 10.0 mi West 17.3 mph - N/A   Mostly Cloudy
2:35 PM 64.4 °F - 37.4 °F 37% 29.72 in 10.0 mi West 21.9 mph 28.8 mph N/A   Overcast
2:55 PM 62.6 °F - 39.2 °F 42% 29.74 in 3.0 mi NW 25.3 mph 32.2 mph 0.02 in   Mostly Cloudy
3:15 PM 59.0 °F - 39.2 °F 48% 29.75 in 10.0 mi NW 35.7 mph 42.6 mph N/A   Mostly Cloudy
3:35 PM 53.6 °F - 39.2 °F 58% 29.78 in 10.0 mi NW 23.0 mph 34.5 mph N/A   Mostly Cloudy
3:55 PM 53.6 °F - 39.2 °F 58% 29.77 in 10.0 mi WNW 15.0 mph 20.7 mph N/A   Overcast
4:15 PM 55.4 °F - 37.4 °F 51% 29.78 in 10.0 mi West 12.7 mph 18.4 mph N/A   Overcast
4:35 PM 55.4 °F - 33.8 °F 44% 29.79 in 10.0 mi West 20.7 mph 29.9 mph N/A   Overcast
4:55 PM 55.4 °F - 35.6 °F 47% 29.79 in 10.0 mi West 20.7 mph 25.3 mph N/A   Overcast
5:15 PM 53.6 °F - 35.6 °F 51% 29.80 in 10.0 mi WNW 23.0 mph 36.8 mph N/A   Overcast
5:35 PM 53.6 °F - 30.2 °F 41% 29.81 in 10.0 mi WNW 28.8 mph 35.7 mph N/A   Mostly Cloudy
6:15 PM 51.8 °F - 30.2 °F 44% 29.84 in 10.0 mi WNW 17.3 mph 26.5 mph N/A   Overcast
6:55 PM 50.0 °F - 30.2 °F 47% 29.88 in 10.0 mi WNW 17.3 mph 25.3 mph N/A   Overcast
7:15 PM 48.2 °F - 30.2 °F 50% 29.90 in 10.0 mi NW 12.7 mph 19.6 mph N/A   Mostly Cloudy
7:35 PM 48.2 °F - 30.2 °F 50% 29.91 in 10.0 mi WNW 10.4 mph - N/A   Scattered Clouds
7:55 PM 46.4 °F 39.8 °F 30.2 °F 53% 29.92 in 10.0 mi NW 16.1 mph - N/A   Partly Cloudy
8:15 PM 44.6 °F 38.1 °F 30.2 °F 57% 29.93 in 10.0 mi NW 13.8 mph - N/A   Clear
8:35 PM 44.6 °F 37.8 °F 32.0 °F 61% 29.94 in 10.0 mi NW 15.0 mph - N/A   Clear
8:55 PM 42.8 °F 35.4 °F 32.0 °F 66% 29.94 in 10.0 mi NW 15.0 mph 23.0 mph N/A   Partly Cloudy
9:15 PM 41.0 °F 32.8 °F 32.0 °F 70% 29.95 in 10.0 mi NNW 16.1 mph - N/A   Clear
9:35 PM 39.2 °F 30.8 °F 32.0 °F 75% 29.94 in 10.0 mi NNW 15.0 mph - N/A   Clear
9:55 PM 39.2 °F 32.0 °F 30.2 °F 70% 29.96 in 10.0 mi NNW 11.5 mph - N/A   Clear
10:15 PM 39.2 °F 33.0 °F 30.2 °F 70% 29.97 in 10.0 mi NW 9.2 mph - N/A   Clear
10:35 PM 37.4 °F 31.4 °F 30.2 °F 75% 29.98 in 10.0 mi WNW 8.1 mph - N/A   Clear
10:55 PM 35.6 °F 28.0 °F 30.2 °F 81% 29.99 in 10.0 mi WNW 10.4 mph - N/A   Clear
11:15 PM 35.6 °F 29.9 °F 28.4 °F 75% 29.99 in 10.0 mi WNW 6.9 mph - N/A   Clear
11:35 PM 35.6 °F 29.2 °F 30.2 °F 81% 30.00 in 10.0 mi NW 8.1 mph - N/A   Clear
11:55 PM 37.4 °F 29.3 °F 30.2 °F 75% 30.00 in 10.0 mi NW 12.7 mph - N/A   Clear